Torna al catalogo

STARLINK-32387

AttivoComunicazioniVLEO
NORAD 61704·PAYLOAD·🇺🇸 United States

Lanciato Oct 30, 2024 da Vandenberg Space Force Base

Loading…

Prossimi Passaggi (prossime 24 ore)

TLE

AggiornatoSource: CelesTrak SupGP

Epoca: Sep 14, 2026, 22:40 UTC

1 61704C 24195T   26257.94493056 -.00008557  00000+0 -25283-3 0  2577
2 61704  53.1592 351.6363 0001142  82.1861 250.4267 15.34394052    19

Traccia STARLINK-32387 in tempo reale con AllMySat

Download on the App Store